| time (UTC) | temp F | wind direction | speed knots | gust knots | rain 1hr in | rain 24hr in | rain mn in | humidity % | barometer mb |
| 20260510051543 | 50 | 120 | 0.0 | 0.0 | 0.00 | 0.07 | 0.00 | 96 | 1010.6 |
| 20260510050041 | 50 | 120 | 0.0 | 0.0 | 0.00 | 0.07 | 0.00 | 96 | 1010.7 |
| 20260510044538 | 51 | 120 | 0.0 | 0.0 | 0.00 | 0.07 | 0.00 | 96 | 1010.7 |
| 20260510043041 | 51 | 120 | 0.0 | 0.0 | 0.00 | 0.07 | 0.00 | 96 | 1010.7 |
| 20260510041539 | 51 | 120 | 0.0 | 0.0 | 0.00 | 0.07 | 0.00 | 95 | 1010.7 |
| 20260510040036 | 51 | 120 | 0.0 | 0.0 | 0.00 | 0.07 | 0.00 | 95 | 1010.8 |
| 20260510034534 | 52 | 120 | 0.0 | 0.0 | 0.00 | 0.07 | 0.07 | 95 | 1010.9 |
| 20260510033033 | 52 | 120 | 0.0 | 0.0 | 0.00 | 0.07 | 0.07 | 94 | 1010.8 |
| 20260510031533 | 52 | 120 | 0.0 | 0.0 | 0.00 | 0.07 | 0.07 | 94 | 1010.9 |
| 20260510030034 | 53 | 120 | 0.0 | 0.0 | 0.00 | 0.07 | 0.07 | 93 | 1011.0 |
| 20260510024534 | 53 | 120 | 0.0 | 0.0 | 0.00 | 0.07 | 0.07 | 92 | 1010.8 |
| 20260510023027 | 54 | 120 | 0.0 | 0.0 | 0.00 | 0.07 | 0.07 | 91 | 1010.7 |
| 20260510021533 | 54 | 124 | 0.0 | 0.0 | 0.00 | 0.07 | 0.07 | 91 | 1010.4 |
| 20260510020027 | 54 | 124 | 0.0 | 0.0 | 0.00 | 0.07 | 0.07 | 91 | 1010.5 |
| 20260510014527 | 55 | 124 | 0.0 | 0.9 | 0.00 | 0.07 | 0.07 | 90 | 1010.3 |
| 20260510013025 | 55 | 124 | 0.0 | 0.0 | 0.00 | 0.07 | 0.07 | 89 | 1010.1 |
| 20260510011524 | 56 | 124 | 0.0 | 0.0 | 0.00 | 0.07 | 0.07 | 88 | 1010.0 |
| 20260510010024 | 56 | 124 | 0.0 | 0.0 | 0.00 | 0.07 | 0.07 | 86 | 1009.8 |
| 20260510004523 | 57 | 124 | 0.0 | 0.9 | 0.00 | 0.07 | 0.07 | 85 | 1009.7 |
| 20260510003029 | 58 | 120 | 0.0 | 0.0 | 0.00 | 0.07 | 0.07 | 83 | 1009.6 |
| 20260510001523 | 59 | 121 | 0.0 | 0.0 | 0.00 | 0.07 | 0.07 | 80 | 1009.4 |
| 20260510000023 | 60 | 120 | 0.0 | 0.9 | 0.00 | 0.07 | 0.07 | 79 | 1009.3 |
| 20260509234533 | 61 | 117 | 0.0 | 1.7 | 0.00 | 0.07 | 0.07 | 77 | 1009.2 |
| 20260509233020 | 61 | 107 | 0.0 | 0.9 | 0.00 | 0.07 | 0.07 | 78 | 1009.2 |
| 20260509231519 | 61 | 127 | 0.0 | 1.7 | 0.00 | 0.07 | 0.07 | 79 | 1009.1 |
| 20260509230019 | 62 | 120 | 0.9 | 1.7 | 0.00 | 0.07 | 0.07 | 78 | 1009.2 |
| 20260509224517 | 62 | 112 | 0.0 | 0.9 | 0.00 | 0.07 | 0.07 | 77 | 1009.3 |
| 20260509223018 | 62 | 145 | 0.0 | 0.0 | 0.00 | 0.07 | 0.07 | 75 | 1009.3 |
| 20260509221516 | 62 | 189 | 0.0 | 1.7 | 0.00 | 0.07 | 0.07 | 73 | 1009.2 |
| 20260509220015 | 63 | 149 | 0.0 | 0.9 | 0.00 | 0.07 | 0.07 | 71 | 1009.3 |
| 20260509214513 | 63 | 237 | 0.0 | 0.0 | 0.00 | 0.07 | 0.07 | 73 | 1009.4 |
| 20260509213013 | 63 | 240 | 0.0 | 0.0 | 0.00 | 0.07 | 0.07 | 69 | 1009.6 |
| 20260509211512 | 63 | 240 | 0.0 | 0.9 | 0.00 | 0.07 | 0.07 | 71 | 1009.8 |
| 20260509210011 | 63 | 117 | 0.0 | 0.9 | 0.00 | 0.07 | 0.07 | 74 | 1009.9 |
| 20260509204510 | 62 | 102 | 0.0 | 0.0 | 0.00 | 0.07 | 0.07 | 72 | 1009.6 |
| 20260509203011 | 62 | 137 | 0.0 | 1.7 | 0.00 | 0.07 | 0.07 | 70 | 1009.6 |
| 20260509201509 | 63 | 224 | 0.0 | 0.9 | 0.00 | 0.07 | 0.07 | 72 | 1009.7 |
| 20260509200009 | 63 | 224 | 0.0 | 0.0 | 0.00 | 0.07 | 0.07 | 70 | 1009.9 |
| 20260509194507 | 64 | 224 | 0.0 | 0.9 | 0.00 | 0.07 | 0.07 | 67 | 1009.9 |
| 20260509193006 | 64 | 231 | 0.0 | 1.7 | 0.00 | 0.07 | 0.07 | 70 | 1010.0 |
| 20260509191501 | 62 | 135 | 0.0 | 1.7 | 0.00 | 0.07 | 0.07 | 71 | 1010.3 |
| 20260509190100 | 61 | 177 | 0.0 | 0.9 | 0.00 | 0.07 | 0.07 | 76 | 1010.3 |
| 20260509184643 | 60 | 150 | 0.0 | 2.6 | 0.00 | 0.07 | 0.07 | 77 | 1010.4 |
| 20260509183056 | 59 | 135 | 0.0 | 2.6 | 0.00 | 0.07 | 0.07 | 83 | 1010.7 |
| 20260509181550 | 58 | 130 | 0.0 | 3.5 | 0.00 | 0.07 | 0.07 | 82 | 1011.1 |
| 20260509180047 | 57 | 115 | 0.9 | 2.6 | 0.00 | 0.07 | 0.07 | 83 | 1011.2 |
| 20260509174548 | 56 | 218 | 0.0 | 2.6 | 0.00 | 0.07 | 0.07 | 86 | 1011.4 |
| 20260509173048 | 56 | 130 | 0.0 | 0.9 | 0.00 | 0.07 | 0.07 | 87 | 1011.3 |
| 20260509171545 | 56 | 118 | 0.0 | 2.6 | 0.00 | 0.07 | 0.07 | 87 | 1011.3 |
| 20260509170048 | 56 | 126 | 0.0 | 2.6 | 0.00 | 0.07 | 0.07 | 86 | 1011.5 |
| 20260509164544 | 56 | 110 | 0.0 | 0.9 | 0.00 | 0.07 | 0.07 | 88 | 1011.5 |
| 20260509163103 | 56 | 262 | 0.0 | 0.9 | 0.00 | 0.07 | 0.07 | 89 | 1011.9 |
| 20260509161544 | 56 | 261 | 0.0 | 1.7 | 0.00 | 0.07 | 0.07 | 87 | 1011.9 |
| 20260509160044 | 55 | 117 | 0.0 | 1.7 | 0.02 | 0.07 | 0.07 | 92 | 1011.8 |
| 20260509154546 | 54 | 147 | 0.0 | 0.9 | 0.05 | 0.07 | 0.07 | 91 | 1011.8 |
| 20260509153041 | 54 | 240 | 0.0 | 0.0 | 0.07 | 0.07 | 0.07 | 92 | 1011.5 |
| 20260509151541 | 53 | 240 | 0.0 | 0.0 | 0.07 | 0.07 | 0.07 | 92 | 1011.8 |
| 20260509150039 | 54 | 240 | 0.0 | 0.0 | 0.05 | 0.05 | 0.05 | 87 | 1012.0 |
| 20260509144539 | 55 | 240 | 0.0 | 0.0 | 0.02 | 0.02 | 0.02 | 83 | 1012.1 |
| 20260509143045 | 56 | 240 | 0.0 | 0.9 | 0.00 | 0.00 | 0.00 | 79 | 1012.3 |
| 20260509141541 | 57 | 220 | 0.0 | 0.9 | 0.00 | 0.00 | 0.00 | 75 | 1012.3 |
| 20260509140031 | 58 | 227 | 0.0 | 0.9 | 0.00 | 0.00 | 0.00 | 72 | 1012.1 |
| 20260509134527 | 57 | 227 | 0.0 | 1.7 | 0.00 | 0.00 | 0.00 | 71 | 1011.9 |
| 20260509133025 | 57 | 152 | 0.0 | 1.7 | 0.00 | 0.00 | 0.00 | 71 | 1011.3 |
| 20260509131524 | 56 | 179 | 0.0 | 0.9 | 0.00 | 0.00 | 0.00 | 70 | 1011.5 |
| 20260509130020 | 56 | 214 | 0.0 | 0.9 | 0.00 | 0.00 | 0.00 | 70 | 1011.3 |
| 20260509124519 | 56 | 130 | 0.0 | 0.9 | 0.00 | 0.00 | 0.00 | 70 | 1011.2 |
| 20260509123021 | 55 | 260 | 0.0 | 0.9 | 0.00 | 0.00 | 0.00 | 72 | 1011.4 |
| 20260509121518 | 55 | 260 | 0.0 | 0.9 | 0.00 | 0.00 | 0.00 | 70 | 1011.5 |
| 20260509120018 | 55 | 120 | 0.0 | 1.7 | 0.00 | 0.00 | 0.00 | 70 | 1011.3 |
| 20260509114517 | 55 | 209 | 0.0 | 0.0 | 0.00 | 0.00 | 0.00 | 72 | 1011.5 |
| 20260509113016 | 54 | 209 | 0.0 | 0.0 | 0.00 | 0.00 | 0.00 | 70 | 1010.8 |
| 20260509111526 | 54 | 209 | 0.0 | 0.9 | 0.00 | 0.00 | 0.00 | 70 | 1010.9 |
| 20260509110015 | 54 | 229 | 0.0 | 0.0 | 0.00 | 0.00 | 0.00 | 70 | 1010.9 |
| 20260509104524 | 54 | 129 | 0.0 | 0.0 | 0.00 | 0.00 | 0.00 | 71 | 1010.8 |
| 20260509103012 | 53 | 130 | 0.0 | 0.0 | 0.00 | 0.00 | 0.00 | 71 | 1010.8 |
| 20260509101512 | 54 | 130 | 0.0 | 0.0 | 0.00 | 0.00 | 0.00 | 71 | 1010.7 |
| 20260509100017 | 54 | 130 | 0.0 | 0.9 | 0.00 | 0.00 | 0.00 | 71 | 1010.7 |
| 20260509094510 | 54 | 127 | 0.0 | 0.0 | 0.00 | 0.00 | 0.00 | 71 | 1010.7 |
| 20260509093009 | 54 | 127 | 0.0 | 0.0 | 0.00 | 0.00 | 0.00 | 70 | 1010.7 |
| 20260509091508 | 54 | 129 | 0.0 | 0.9 | 0.00 | 0.00 | 0.00 | 70 | 1010.8 |
| 20260509090006 | 54 | 147 | 0.0 | 1.7 | 0.00 | 0.00 | 0.00 | 69 | 1010.9 |
| 20260509084506 | 54 | 183 | 0.0 | 0.0 | 0.00 | 0.00 | 0.00 | 70 | 1011.0 |
| 20260509083004 | 54 | 122 | 0.0 | 0.9 | 0.00 | 0.00 | 0.00 | 70 | 1011.2 |
| 20260509081505 | 54 | 214 | 0.0 | 0.0 | 0.00 | 0.00 | 0.00 | 72 | 1011.2 |
| 20260509080004 | 54 | 214 | 0.0 | 0.9 | 0.00 | 0.00 | 0.00 | 71 | 1011.2 |
| 20260509074502 | 54 | 224 | 0.0 | 0.0 | 0.00 | 0.00 | 0.00 | 72 | 1011.1 |
| 20260509073005 | 53 | 231 | 0.0 | 0.9 | 0.00 | 0.00 | 0.00 | 72 | 1011.1 |
| 20260509071500 | 53 | 229 | 0.0 | 0.0 | 0.00 | 0.00 | 0.00 | 76 | 1011.2 |
| 20260509064557 | 54 | 229 | 0.0 | 0.0 | 0.00 | 0.00 | 0.00 | 75 | 1011.4 |
| 20260509063100 | 55 | 229 | 0.0 | 0.9 | 0.00 | 0.00 | 0.00 | 73 | 1011.5 |
| 20260509061606 | 55 | 117 | 0.0 | 2.6 | 0.00 | 0.00 | 0.00 | 72 | 1011.2 |
| 20260509060052 | 56 | 138 | 0.0 | 4.3 | 0.00 | 0.00 | 0.00 | 71 | 1011.1 |
| 20260509054557 | 56 | 125 | 0.0 | 2.6 | 0.00 | 0.00 | 0.00 | 70 | 1011.4 |
| 20260509053057 | 56 | 122 | 0.0 | 2.6 | 0.00 | 0.00 | 0.00 | 68 | 1011.8 |